Theta_e
347 348 347 346 345 343 344 346 347 348 349 350 350 349 348 349 349 349 348 347 345 345 345 344 344 344 343 341 339 338 340 339
336 344 347 347 348 344 344 344 345 346 347 348 347 348 348 348 348 348 347 346 344 343 343 343 343 342 342 340 338 336 339 340
333 335 340 348 348 347 343 344 345 344 346 346 344 349 351 351 347 346 347 345 344 342 341 341 341 340 340 339 336 341 338 339
327 331 336 344 347 347 347 347 346 347 347 349 348 348 348 346 346 344 345 344 344 342 341 340 338 342 341 338 340 341 340 338
324 328 331 329 332 348 346 344 345 347 349 348 348 347 347 345 344 346 347 343 345 342 341 342 338 338 338 339 339 340 340 337
322 324 327 329 326 331 349 347 346 345 345 348 348 346 345 345 342 342 344 343 342 343 340 342 342 342 341 339 338 338 337 337
320 323 324 327 333 329 332 347 350 348 347 347 346 345 345 345 345 344 343 342 343 341 339 338 340 341 341 339 338 336 336 335
318 320 323 326 329 333 335 333 346 351 349 349 349 347 345 343 344 344 344 344 343 342 340 337 336 337 337 339 338 337 335 334
315 318 322 324 327 330 334 338 339 345 346 347 347 346 346 347 345 343 344 345 345 345 343 342 339 335 335 335 336 337 337 337
314 315 318 322 325 328 332 328 332 332 342 347 343 345 344 344 345 346 345 345 344 343 342 340 338 336 334 332 332 333 335 335
311 314 315 320 323 327 331 327 324 324 324 321 322 322 330 344 345 346 347 345 344 342 342 341 339 337 335 335 335 334 333 331
310 312 313 316 319 323 326 325 323 320 320 321 320 319 320 324 340 346 347 345 343 343 341 342 340 339 336 334 336 336 337 337
309 309 311 312 312 315 318 320 321 319 316 317 318 317 317 318 322 324 338 341 342 344 342 342 339 340 337 336 335 336 337 338
309 309 309 310 311 312 314 316 316 318 319 319 318 315 315 314 316 317 319 322 335 338 338 337 339 341 333 333 327 329 332 333
306 308 308 309 310 311 312 313 312 312 313 314 315 315 314 313 312 315 315 317 318 320 323 328 330 337 342 333 327 323 326 331
307 307 308 308 310 309 309 308 306 309 310 312 312 313 312 311 312 311 313 314 313 315 319 320 323 322 329 337 333 335 328 326
307 307 307 308 308 308 307 307 307 307 308 309 311 312 311 309 311 311 311 310 311 312 314 313 318 320 321 323 326 328 329 329
306 306 306 307 307 307 307 306 305 305 305 305 306 307 308 308 309 310 312 310 309 309 312 309 309 311 313 318 319 317 318 316
304 305 304 305 306 305 305 305 305 304 304 304 304 304 304 304 305 307 308 309 308 309 311 311 310 309 308 308 309 313 318 318
304 304 303 304 305 304 305 305 304 304 304 304 303 303 303 306 306 306 306 306 307 306 306 309 309 310 310 310 308 309 311 308
Wind_Speed
10 8 6 4 5 7 7 1 6 7 7 7 6 6 6 6 6 5 4 3 4 5 6 7 7 7 6 4 4 5 11 4
10 10 4 4 2 4 4 4 3 1 5 5 5 6 5 5 5 7 6 5 5 6 6 7 7 7 7 6 5 9 11 7
11 10 7 5 1 3 5 5 3 3 5 3 6 8 8 9 6 6 5 6 6 6 7 7 7 8 9 8 7 8 8 6
12 11 10 9 4 3 4 4 6 6 7 7 8 7 6 5 2 5 6 6 6 7 8 8 8 10 9 11 9 10 7 8
13 12 10 9 9 6 4 4 4 5 7 7 7 5 6 6 6 7 8 10 8 10 10 9 12 10 9 8 8 8 8 8
14 14 12 8 5 6 9 5 5 6 6 7 6 6 7 7 6 6 6 6 8 8 7 9 11 11 12 12 11 10 8 7
14 13 13 11 7 5 6 8 5 7 7 8 7 7 8 8 7 7 8 7 7 8 9 9 11 12 12 13 13 13 13 9
14 14 14 12 9 9 5 4 9 6 7 8 9 7 8 9 9 9 9 9 8 8 9 10 10 11 12 13 14 14 14 14
14 14 14 13 12 9 6 6 6 6 5 7 9 8 9 11 10 10 10 9 10 9 10 10 10 11 13 13 13 15 14 16
14 13 15 13 12 8 7 10 11 11 9 6 5 10 11 9 10 11 11 9 10 10 10 10 11 11 11 11 12 13 15 16
17 16 16 14 12 8 7 10 9 10 9 9 13 13 16 10 10 11 11 10 10 10 11 11 11 12 12 12 12 13 14 13
15 14 17 14 10 8 8 7 9 9 9 10 14 12 16 11 10 11 11 9 10 10 12 12 12 12 12 13 12 13 13 13
16 16 17 13 11 10 8 8 9 8 9 13 15 14 15 13 10 12 13 9 11 12 12 14 12 11 11 13 14 16 17 15
15 16 16 14 10 10 7 8 8 8 9 11 14 14 14 13 13 11 13 10 10 9 9 9 11 12 12 12 14 12 13 15
13 14 14 14 14 9 8 8 8 9 10 10 12 14 15 14 14 12 13 10 9 9 11 10 7 10 12 8 9 12 12 11
12 13 14 13 14 11 13 10 10 9 9 9 10 14 14 15 13 14 12 9 12 11 9 8 8 6 6 9 14 13 12 13
10 12 13 14 13 12 10 11 9 9 9 11 12 12 14 16 14 12 11 9 11 13 13 12 9 6 8 7 5 5 10 8
9 10 11 13 13 14 13 13 12 11 11 10 10 10 10 15 14 13 12 12 11 11 10 12 11 10 11 7 6 5 1 3
7 9 10 12 12 13 13 12 12 12 12 10 11 10 9 13 13 13 12 14 14 14 11 12 12 9 10 7 8 9 7 4
7 8 8 9 9 10 10 11 8 8 10 9 9 9 10 13 13 12 12 13 14 14 9 11 13 10 12 8 5 7 5 7
Wind_Direction
27 30 75 110 37 16 3 89 143 142 144 145 147 154 157 156 156 150 149 158 167 172 175 178 186 194 202 219 243 279 291 259
29 11 65 9 114 106 15 345 336 196 164 161 158 163 170 176 175 170 169 181 194 190 194 206 213 216 230 252 270 271 259 267
22 11 360 320 276 109 204 207 264 286 220 193 189 219 189 170 109 138 184 192 197 206 215 218 229 241 246 249 259 258 269 254
22 9 357 337 253 248 232 256 226 215 226 222 237 245 239 284 129 180 211 211 220 218 218 228 233 244 212 211 243 257 260 259
25 19 3 1 342 293 223 220 238 231 245 252 246 267 241 228 238 205 223 197 227 200 210 227 233 243 247 254 256 253 256 258
22 17 10 5 344 339 316 237 222 231 238 232 248 251 246 263 254 252 238 246 249 250 241 244 244 244 253 262 257 263 265 262
17 17 10 360 344 349 327 310 256 246 240 233 226 258 265 264 260 263 269 254 247 250 257 249 242 245 250 249 253 256 261 266
15 14 10 0 1 349 319 287 310 256 258 254 244 233 253 256 257 254 253 253 253 261 260 263 251 255 252 250 255 259 258 258
18 10 10 5 1 356 351 340 300 295 275 286 259 259 260 259 260 255 258 255 257 256 260 257 261 261 256 257 254 251 254 258
29 19 10 7 9 4 17 17 16 14 341 294 295 265 246 250 257 256 249 253 254 250 256 260 262 264 264 263 258 249 250 252
21 19 16 9 13 6 43 31 26 24 19 15 1 9 349 272 247 261 257 251 247 260 259 254 260 262 264 260 259 260 259 254
25 22 17 10 14 8 28 44 31 25 26 19 13 5 4 351 316 272 269 258 258 254 256 262 261 264 272 275 271 269 263 258
30 27 20 11 17 14 15 14 16 32 27 18 14 13 6 3 359 354 335 280 260 258 264 255 251 249 262 266 265 258 253 254
33 31 29 20 18 12 9 12 26 20 23 21 21 18 15 6 359 357 352 344 320 274 266 262 257 262 255 260 268 261 255 253
31 33 33 30 14 17 15 19 33 20 21 21 26 21 19 17 6 3 359 357 345 346 359 333 277 268 254 241 269 262 268 258
30 34 36 36 25 26 26 27 22 18 14 19 22 24 24 17 11 5 360 354 357 343 346 331 325 335 300 273 247 261 272 274
28 31 33 31 34 28 25 26 24 22 16 15 19 21 26 17 12 6 4 359 353 352 358 357 354 335 345 340 317 328 300 291
35 33 33 27 25 27 28 28 21 22 18 14 15 17 13 16 10 6 358 5 0 353 353 4 353 351 338 337 338 316 299 317
42 36 34 27 25 26 25 23 27 28 17 20 14 13 12 10 4 4 359 352 358 351 356 1 355 353 341 355 339 340 330 301
46 49 44 33 30 30 27 24 26 25 24 15 15 12 9 2 2 359 0 356 356 355 352 352 349 348 340 344 327 324 351 342